Дата Пункты Температура Давл., мм. Влажн., % Ветер Погодные явления
Воздуха Воды Направл. Скорость
04.11.19 02:00 Одесса 15.0 12.0 754 88 Пд 3 02 ГОДИНИ
03.11.19 11:00 Одесса 15.0 12.0 755 84 Пд 4 23 ГОДИНИ
03.11.19 08:00 Одесса 15.0 12.0 756 82 Пд 3 20 ГОДИН
03.11.19 05:00 Одесса 14.0 12.0 756 79 Пд 3 17 ГОДИН
03.11.19 02:00 Одесса 15.0 12.0 756 77 Пд 7 14 ГОДИН
03.11.19 11:00 Одесса 14.0 12.0 758 77 Пд 5 11 ГОДИН
03.11.19 08:00 Одесса 13.0 12.0 758 71 Пд 6 08 ГОДИН
03.11.19 05:00 Одесса 13.0 13.0 758 72 Пд-З 6 05 ГОДИН
03.11.19 02:00 Одесса 13.0 13.0 759 77 Пд-З 6 02 ГОДИНИ
02.11.19 11:00 Одесса 12.0 13.0 760 72 Пд 5 23 ГОДИНИ
02.11.19 08:00 Одесса 12.0 13.0 761 68 Пд 9 20 ГОДИН
02.11.19 05:00 Одесса 11.0 13.0 762 61 Пд 7 17 ГОДИН
02.11.19 02:00 Одесса 10.0 13.0 763 60 Пд 6 14 ГОДИН
02.11.19 11:00 Одесса 11.0 12.0 764 53 Пд 4 11 ГОДИН
02.11.19 08:00 Одесса 6.0 12.0 765 78 Пд-З 2 08 ГОДИН
02.11.19 05:00 Одесса 2.0 13.0 765 81 Пн 0 05 ГОДИН
02.11.19 02:00 Одесса 2.0 13.0 766 84 З 2 02 ГОДИНИ
01.11.19 11:00 Одесса 3.0 13.0 766 75 З 2 23 ГОДИНИ
01.11.19 08:00 Одесса 4.0 13.0 766 67 З 2 20 ГОДИН
01.11.19 05:00 Одесса 5.0 13.0 766 57 Пн 0 17 ГОДИН
Количество строк
1 2 3 4 5 6 7 8 9 10
Page 7 of 553